Year,Month,Day,Hour,Minute,Value (Times are PST for temperature in C)
2012,02,03,00,00,5.80
2012,02,03,00,01,5.80
2012,02,03,00,02,5.80
2012,02,03,00,03,5.90
2012,02,03,00,04,5.90
2012,02,03,00,05,5.90
2012,02,03,00,06,5.70
2012,02,03,00,07,5.70
2012,02,03,00,08,5.60
2012,02,03,00,09,5.50
2012,02,03,00,10,5.50
2012,02,03,00,11,5.50
2012,02,03,00,12,5.50
2012,02,03,00,13,5.50
2012,02,03,00,14,5.50
2012,02,03,00,15,5.50
2012,02,03,00,16,5.50
2012,02,03,00,17,5.40
2012,02,03,00,18,5.40
2012,02,03,00,19,5.30
2012,02,03,00,20,5.30
2012,02,03,00,21,5.30
2012,02,03,00,22,5.30
2012,02,03,00,23,5.30
2012,02,03,00,24,5.30
2012,02,03,00,25,5.30
2012,02,03,00,26,5.30
2012,02,03,00,27,5.30
2012,02,03,00,28,5.30
2012,02,03,00,29,5.30
2012,02,03,00,30,5.30
2012,02,03,00,31,5.30
2012,02,03,00,32,5.30
2012,02,03,00,33,5.30
2012,02,03,00,34,5.30
2012,02,03,00,35,5.30
2012,02,03,00,36,5.30
2012,02,03,00,37,5.30
2012,02,03,00,38,5.20
2012,02,03,00,39,5.20
2012,02,03,00,40,5.10
2012,02,03,00,41,5.10
2012,02,03,00,42,5.10
2012,02,03,00,43,5.10
2012,02,03,00,44,5.00
2012,02,03,00,45,4.90
2012,02,03,00,46,5.00
2012,02,03,00,47,5.10
2012,02,03,00,48,5.10
2012,02,03,00,49,5.10
2012,02,03,00,50,5.20
2012,02,03,00,51,5.30
2012,02,03,00,52,5.30
2012,02,03,00,53,5.30
2012,02,03,00,54,5.30
2012,02,03,00,55,5.30
2012,02,03,00,56,5.30
2012,02,03,00,57,5.30
2012,02,03,00,58,5.30
2012,02,03,00,59,5.30
2012,02,03,01,00,5.30
2012,02,03,01,01,5.30
2012,02,03,01,02,5.40
2012,02,03,01,03,5.40
2012,02,03,01,04,5.40
2012,02,03,01,05,5.40
2012,02,03,01,06,5.40
2012,02,03,01,07,5.40
2012,02,03,01,08,5.40
2012,02,03,01,09,5.40
2012,02,03,01,10,5.30
2012,02,03,01,11,5.30
2012,02,03,01,12,5.30
2012,02,03,01,13,5.30
2012,02,03,01,14,5.30
2012,02,03,01,15,5.30
2012,02,03,01,16,5.30
2012,02,03,01,17,5.30
2012,02,03,01,18,5.30
2012,02,03,01,19,5.40
2012,02,03,01,20,5.40
2012,02,03,01,21,5.40
2012,02,03,01,22,5.50
2012,02,03,01,23,5.50
2012,02,03,01,24,5.50
2012,02,03,01,25,5.60
2012,02,03,01,26,5.60
2012,02,03,01,27,5.60
2012,02,03,01,28,5.60
2012,02,03,01,29,5.60
2012,02,03,01,30,5.70
2012,02,03,01,31,5.70
2012,02,03,01,32,5.70
2012,02,03,01,33,5.70
2012,02,03,01,34,5.70
2012,02,03,01,35,5.70
2012,02,03,01,36,5.70
2012,02,03,01,37,5.70
2012,02,03,01,38,5.70
2012,02,03,01,39,5.60
2012,02,03,01,40,5.60
2012,02,03,01,41,5.50
2012,02,03,01,42,5.50
2012,02,03,01,43,5.40
2012,02,03,01,44,5.30
2012,02,03,01,45,5.30
2012,02,03,01,46,5.30
2012,02,03,01,47,5.30
2012,02,03,01,48,5.30
2012,02,03,01,49,5.20
2012,02,03,01,50,5.20
2012,02,03,01,51,5.20
2012,02,03,01,52,5.20
2012,02,03,01,53,5.30
2012,02,03,01,54,5.30
2012,02,03,01,55,5.30
2012,02,03,01,56,5.30
2012,02,03,01,57,5.30
2012,02,03,01,58,5.20
2012,02,03,01,59,5.20
2012,02,03,02,00,5.10
2012,02,03,02,01,5.10
2012,02,03,02,02,5.10
2012,02,03,02,03,5.10
2012,02,03,02,04,5.10
2012,02,03,02,05,5.10
2012,02,03,02,06,5.10
2012,02,03,02,07,5.10
2012,02,03,02,08,5.10
2012,02,03,02,09,5.10
2012,02,03,02,10,5.10
2012,02,03,02,11,5.10
2012,02,03,02,12,5.00
2012,02,03,02,13,4.90
2012,02,03,02,14,4.80
2012,02,03,02,15,4.80
2012,02,03,02,16,4.70
2012,02,03,02,17,4.70
2012,02,03,02,18,4.60
2012,02,03,02,19,4.60
2012,02,03,02,20,4.60
2012,02,03,02,21,4.70
2012,02,03,02,22,4.70
2012,02,03,02,23,4.60
2012,02,03,02,24,4.60
2012,02,03,02,25,4.50
2012,02,03,02,26,4.50
2012,02,03,02,27,4.40
2012,02,03,02,28,4.50
2012,02,03,02,29,4.50
2012,02,03,02,30,4.60
2012,02,03,02,31,4.70
2012,02,03,02,32,4.80
2012,02,03,02,33,4.90
2012,02,03,02,34,4.90
2012,02,03,02,35,4.90
2012,02,03,02,36,4.80
2012,02,03,02,37,4.90
2012,02,03,02,38,4.90
2012,02,03,02,39,5.00
2012,02,03,02,40,5.10
2012,02,03,02,41,5.10
2012,02,03,02,42,5.20
2012,02,03,02,43,5.30
2012,02,03,02,44,5.30
2012,02,03,02,45,5.40
2012,02,03,02,46,5.40
2012,02,03,02,47,5.40
2012,02,03,02,48,5.50
2012,02,03,02,49,5.50
2012,02,03,02,50,5.50
2012,02,03,02,51,5.60
2012,02,03,02,52,5.50
2012,02,03,02,53,5.50
2012,02,03,02,54,5.40
2012,02,03,02,55,5.30
2012,02,03,02,56,5.20
2012,02,03,02,57,5.20
2012,02,03,02,58,5.20
2012,02,03,02,59,5.10
2012,02,03,03,00,5.10
2012,02,03,03,01,5.00
2012,02,03,03,02,4.90
2012,02,03,03,03,4.80
2012,02,03,03,04,4.70
2012,02,03,03,05,4.60
2012,02,03,03,06,4.60
2012,02,03,03,07,4.50
2012,02,03,03,08,4.50
2012,02,03,03,09,4.40
2012,02,03,03,10,4.30
2012,02,03,03,11,4.30
2012,02,03,03,12,4.30
2012,02,03,03,13,4.30
2012,02,03,03,14,4.40
2012,02,03,03,15,4.40
2012,02,03,03,16,4.40
2012,02,03,03,17,4.50
2012,02,03,03,18,4.50
2012,02,03,03,19,4.50
2012,02,03,03,20,4.50
2012,02,03,03,21,4.40
2012,02,03,03,22,4.40
2012,02,03,03,23,4.30
2012,02,03,03,24,4.20
2012,02,03,03,25,4.20
2012,02,03,03,26,4.20
2012,02,03,03,27,4.20
2012,02,03,03,28,4.20
2012,02,03,03,29,4.30
2012,02,03,03,30,4.40
2012,02,03,03,31,4.40
2012,02,03,03,32,4.50
2012,02,03,03,33,4.50
2012,02,03,03,34,4.60
2012,02,03,03,35,4.60
2012,02,03,03,36,4.60
2012,02,03,03,37,4.60
2012,02,03,03,38,4.60
2012,02,03,03,39,4.60
2012,02,03,03,40,4.70
2012,02,03,03,41,4.80
2012,02,03,03,42,4.90
2012,02,03,03,43,5.00
2012,02,03,03,44,5.10
2012,02,03,03,45,5.10
2012,02,03,03,46,5.30
2012,02,03,03,47,5.30
2012,02,03,03,48,5.30
2012,02,03,03,49,5.40
2012,02,03,03,50,5.50
2012,02,03,03,51,5.50
2012,02,03,03,52,5.60
2012,02,03,03,53,5.60
2012,02,03,03,54,5.70
2012,02,03,03,55,5.70
2012,02,03,03,56,5.70
2012,02,03,03,57,5.70
2012,02,03,03,58,5.70
2012,02,03,03,59,5.70
2012,02,03,04,00,5.70
2012,02,03,04,01,5.70
2012,02,03,04,02,5.70
2012,02,03,04,03,5.70
2012,02,03,04,04,5.70
2012,02,03,04,05,5.70
2012,02,03,04,06,5.70
2012,02,03,04,07,5.70
2012,02,03,04,08,5.70
2012,02,03,04,09,5.70
2012,02,03,04,10,5.70
2012,02,03,04,11,5.70
2012,02,03,04,12,5.70
2012,02,03,04,13,5.70
2012,02,03,04,14,5.70
2012,02,03,04,15,5.70
2012,02,03,04,16,5.70
2012,02,03,04,17,5.70
2012,02,03,04,18,5.60
2012,02,03,04,19,5.60
2012,02,03,04,20,5.60
2012,02,03,04,21,5.70
2012,02,03,04,22,5.70
2012,02,03,04,23,5.70
2012,02,03,04,24,5.70
2012,02,03,04,25,5.70
2012,02,03,04,26,5.70
2012,02,03,04,27,5.60
2012,02,03,04,28,5.60
2012,02,03,04,29,5.60
2012,02,03,04,30,5.60
2012,02,03,04,31,5.60
2012,02,03,04,32,5.60
2012,02,03,04,33,5.60
2012,02,03,04,34,5.60
2012,02,03,04,35,5.50
2012,02,03,04,36,5.50
2012,02,03,04,37,5.50
2012,02,03,04,38,5.40
2012,02,03,04,39,5.40
2012,02,03,04,40,5.40
2012,02,03,04,41,5.40
2012,02,03,04,42,5.40
2012,02,03,04,43,5.40
2012,02,03,04,44,5.40
2012,02,03,04,45,5.40
2012,02,03,04,46,5.40
2012,02,03,04,47,5.40
2012,02,03,04,48,5.40
2012,02,03,04,49,5.50
2012,02,03,04,50,5.50
2012,02,03,04,51,5.60
2012,02,03,04,52,5.60
2012,02,03,04,53,5.70
2012,02,03,04,54,5.70
2012,02,03,04,55,5.70
2012,02,03,04,56,5.70
2012,02,03,04,57,5.70
2012,02,03,04,58,5.70
2012,02,03,04,59,5.70
2012,02,03,05,00,5.70
2012,02,03,05,01,5.70
2012,02,03,05,02,5.70
2012,02,03,05,03,5.70
2012,02,03,05,04,5.70
2012,02,03,05,05,5.70
2012,02,03,05,06,5.70
2012,02,03,05,07,5.70
2012,02,03,05,08,5.70
2012,02,03,05,09,5.70
2012,02,03,05,10,5.70
2012,02,03,05,11,5.70
2012,02,03,05,12,5.70
2012,02,03,05,13,5.70
2012,02,03,05,14,5.70
2012,02,03,05,15,5.70
2012,02,03,05,16,5.70
2012,02,03,05,17,5.70
2012,02,03,05,18,5.70
2012,02,03,05,19,5.60
2012,02,03,05,20,5.60
2012,02,03,05,21,5.60
2012,02,03,05,22,5.60
2012,02,03,05,23,5.50
2012,02,03,05,24,5.50
2012,02,03,05,25,5.50
2012,02,03,05,26,5.40
2012,02,03,05,27,5.40
2012,02,03,05,28,5.30
2012,02,03,05,29,5.30
2012,02,03,05,30,5.20
2012,02,03,05,31,5.20
2012,02,03,05,32,5.20
2012,02,03,05,33,5.20
2012,02,03,05,34,5.20
2012,02,03,05,35,5.20
2012,02,03,05,36,5.20
2012,02,03,05,37,5.20
2012,02,03,05,38,5.20
2012,02,03,05,39,5.20
2012,02,03,05,40,5.20
2012,02,03,05,41,5.20
2012,02,03,05,42,5.20
2012,02,03,05,43,5.20
2012,02,03,05,44,5.20
2012,02,03,05,45,5.20
2012,02,03,05,46,5.20
2012,02,03,05,47,5.20
2012,02,03,05,48,5.20
2012,02,03,05,49,5.30
2012,02,03,05,50,5.30
2012,02,03,05,51,5.30
2012,02,03,05,52,5.30
2012,02,03,05,53,5.40
2012,02,03,05,54,5.40
2012,02,03,05,55,5.50
2012,02,03,05,56,5.50
2012,02,03,05,57,5.50
2012,02,03,05,58,5.50
2012,02,03,05,59,5.60
2012,02,03,06,00,5.60
2012,02,03,06,01,5.60
2012,02,03,06,02,5.60
2012,02,03,06,03,5.70
2012,02,03,06,04,5.70
2012,02,03,06,05,5.70
2012,02,03,06,06,5.70
2012,02,03,06,07,5.80
2012,02,03,06,08,5.80
2012,02,03,06,09,5.80
2012,02,03,06,10,5.80
2012,02,03,06,11,5.70
2012,02,03,06,12,5.70
2012,02,03,06,13,5.70
2012,02,03,06,14,5.70
2012,02,03,06,15,5.70
2012,02,03,06,16,5.70
2012,02,03,06,17,5.60
2012,02,03,06,18,5.60
2012,02,03,06,19,5.70
2012,02,03,06,20,5.70
2012,02,03,06,21,5.70
2012,02,03,06,22,5.70
2012,02,03,06,23,5.60
2012,02,03,06,24,5.60
2012,02,03,06,25,5.60
2012,02,03,06,26,5.60
2012,02,03,06,27,5.60
2012,02,03,06,28,5.50
2012,02,03,06,29,5.50
2012,02,03,06,30,5.40
2012,02,03,06,31,5.40
2012,02,03,06,32,5.30
2012,02,03,06,33,5.30
2012,02,03,06,34,5.30
2012,02,03,06,35,5.30
2012,02,03,06,36,5.30
2012,02,03,06,37,5.40
2012,02,03,06,38,5.40
2012,02,03,06,39,5.50
2012,02,03,06,40,5.50
2012,02,03,06,41,5.50
2012,02,03,06,42,5.50
2012,02,03,06,43,5.50
2012,02,03,06,44,5.40
2012,02,03,06,45,5.40
2012,02,03,06,46,5.40
2012,02,03,06,47,5.30
2012,02,03,06,48,5.30
2012,02,03,06,49,5.30
2012,02,03,06,50,5.30
2012,02,03,06,51,5.20
2012,02,03,06,52,5.10
2012,02,03,06,53,5.10
2012,02,03,06,54,5.10
2012,02,03,06,55,5.10
2012,02,03,06,56,4.90
2012,02,03,06,57,4.90
2012,02,03,06,58,4.90
2012,02,03,06,59,4.90
2012,02,03,07,00,4.80
2012,02,03,07,01,4.80
2012,02,03,07,02,4.80
2012,02,03,07,03,4.70
2012,02,03,07,04,4.70
2012,02,03,07,05,4.70
2012,02,03,07,06,4.80
2012,02,03,07,07,4.80
2012,02,03,07,08,4.80
2012,02,03,07,09,4.80
2012,02,03,07,10,4.80
2012,02,03,07,11,4.70
2012,02,03,07,12,4.70
2012,02,03,07,13,4.70
2012,02,03,07,14,4.60
2012,02,03,07,15,4.60
2012,02,03,07,16,4.60
2012,02,03,07,17,4.60
2012,02,03,07,18,4.60
2012,02,03,07,19,4.60
2012,02,03,07,20,4.60
2012,02,03,07,21,4.60
2012,02,03,07,22,4.70
2012,02,03,07,23,4.80
2012,02,03,07,24,5.00
2012,02,03,07,25,5.10
2012,02,03,07,26,5.20
2012,02,03,07,27,5.30
2012,02,03,07,28,5.30
2012,02,03,07,29,5.40
2012,02,03,07,30,5.40
2012,02,03,07,31,5.50
2012,02,03,07,32,5.50
2012,02,03,07,33,5.60
2012,02,03,07,34,5.70
2012,02,03,07,35,5.70
2012,02,03,07,36,5.70
2012,02,03,07,37,5.70
2012,02,03,07,38,5.70
2012,02,03,07,39,5.70
2012,02,03,07,40,5.70
2012,02,03,07,41,5.70
2012,02,03,07,42,5.70
2012,02,03,07,43,5.80
2012,02,03,07,44,5.80
2012,02,03,07,45,5.80
2012,02,03,07,46,5.80
2012,02,03,07,47,5.90
2012,02,03,07,48,5.90
2012,02,03,07,49,6.00
2012,02,03,07,50,6.00
2012,02,03,07,51,6.10
2012,02,03,07,52,6.10
2012,02,03,07,53,6.20
2012,02,03,07,54,6.20
2012,02,03,07,55,6.20
2012,02,03,07,56,6.20
2012,02,03,07,57,6.20
2012,02,03,07,58,6.20
2012,02,03,07,59,6.20
2012,02,03,08,00,6.30
2012,02,03,08,01,6.30
2012,02,03,08,02,6.30
2012,02,03,08,03,6.20
2012,02,03,08,04,6.20
2012,02,03,08,05,6.20
2012,02,03,08,06,6.20
2012,02,03,08,07,6.20
2012,02,03,08,08,6.10
2012,02,03,08,09,6.10
2012,02,03,08,10,6.10
2012,02,03,08,11,6.00
2012,02,03,08,12,6.00
2012,02,03,08,13,6.00
2012,02,03,08,14,6.00
2012,02,03,08,15,6.10
2012,02,03,08,16,6.30
2012,02,03,08,17,6.40
2012,02,03,08,18,6.60
2012,02,03,08,19,6.90
2012,02,03,08,20,7.10
2012,02,03,08,21,7.40
2012,02,03,08,22,7.60
2012,02,03,08,23,7.70
2012,02,03,08,24,7.80
2012,02,03,08,25,7.80
2012,02,03,08,26,7.80
2012,02,03,08,27,7.90
2012,02,03,08,28,7.90
2012,02,03,08,29,7.90
2012,02,03,08,30,8.00
2012,02,03,08,31,8.00
2012,02,03,08,32,8.00
2012,02,03,08,33,8.00
2012,02,03,08,34,8.00
2012,02,03,08,35,8.00
2012,02,03,08,36,8.10
2012,02,03,08,37,8.10
2012,02,03,08,38,8.20
2012,02,03,08,39,8.30
2012,02,03,08,40,8.30
2012,02,03,08,41,8.40
2012,02,03,08,42,8.40
2012,02,03,08,43,8.50
2012,02,03,08,44,8.50
2012,02,03,08,45,8.60
2012,02,03,08,46,8.60
2012,02,03,08,47,8.60
2012,02,03,08,48,8.60
2012,02,03,08,49,8.50
2012,02,03,08,50,8.40
2012,02,03,08,51,8.30
2012,02,03,08,52,8.20
2012,02,03,08,53,8.10
2012,02,03,08,54,8.00
2012,02,03,08,55,8.00
2012,02,03,08,56,8.00
2012,02,03,08,57,8.00
2012,02,03,08,58,8.00
2012,02,03,08,59,8.00
2012,02,03,09,00,8.00
2012,02,03,09,01,8.00
2012,02,03,09,02,8.00
2012,02,03,09,03,8.00
2012,02,03,09,04,8.10
2012,02,03,09,05,8.20
2012,02,03,09,06,8.30
2012,02,03,09,07,8.40
2012,02,03,09,08,8.40
2012,02,03,09,09,8.50
2012,02,03,09,10,8.50
2012,02,03,09,11,8.50
2012,02,03,09,12,8.50
2012,02,03,09,13,8.50
2012,02,03,09,14,8.50
2012,02,03,09,15,8.50
2012,02,03,09,16,8.60
2012,02,03,09,17,8.60
2012,02,03,09,18,8.70
2012,02,03,09,19,8.70
2012,02,03,09,20,8.80
2012,02,03,09,21,9.00
2012,02,03,09,22,9.10
2012,02,03,09,23,9.20
2012,02,03,09,24,9.30
2012,02,03,09,25,9.30
2012,02,03,09,26,9.30
2012,02,03,09,27,9.40
2012,02,03,09,28,9.30
2012,02,03,09,29,9.20
2012,02,03,09,30,9.10
2012,02,03,09,31,9.10
2012,02,03,09,32,9.00
2012,02,03,09,33,8.90
2012,02,03,09,34,8.90
2012,02,03,09,35,8.80
2012,02,03,09,36,8.70
2012,02,03,09,37,8.70
2012,02,03,09,38,8.80
2012,02,03,09,39,8.80
2012,02,03,09,40,8.90
2012,02,03,09,41,9.00
2012,02,03,09,42,9.10
2012,02,03,09,43,9.20
2012,02,03,09,44,9.30
2012,02,03,09,45,9.40
2012,02,03,09,46,9.50
2012,02,03,09,47,9.50
2012,02,03,09,48,9.50
2012,02,03,09,49,9.50
2012,02,03,09,50,9.60
2012,02,03,09,51,9.70
2012,02,03,09,52,9.80
2012,02,03,09,53,9.90
2012,02,03,09,54,9.90
2012,02,03,09,55,9.90
2012,02,03,09,56,9.90
2012,02,03,09,57,9.90
2012,02,03,09,58,9.90
2012,02,03,09,59,9.90
2012,02,03,10,00,9.90
2012,02,03,10,01,9.90
2012,02,03,10,02,9.90
2012,02,03,10,03,9.90
2012,02,03,10,04,10.10
2012,02,03,10,05,10.10
2012,02,03,10,06,10.20
2012,02,03,10,07,10.30
2012,02,03,10,08,10.40
2012,02,03,10,09,10.40
2012,02,03,10,10,10.40
2012,02,03,10,11,10.50
2012,02,03,10,12,10.60
2012,02,03,10,13,10.60
2012,02,03,10,14,10.70
2012,02,03,10,15,10.70
2012,02,03,10,16,10.60
2012,02,03,10,17,10.70
2012,02,03,10,18,10.70
2012,02,03,10,19,10.70
2012,02,03,10,20,10.80
2012,02,03,10,21,10.80
2012,02,03,10,22,10.90
2012,02,03,10,23,10.90
2012,02,03,10,24,10.90
2012,02,03,10,25,10.90
2012,02,03,10,26,10.90
2012,02,03,10,27,10.90
2012,02,03,10,28,10.90
2012,02,03,10,29,11.10
2012,02,03,10,30,11.10
2012,02,03,10,31,11.10
2012,02,03,10,32,11.10
2012,02,03,10,33,11.10
2012,02,03,10,34,11.20
2012,02,03,10,35,11.10
2012,02,03,10,36,11.10
2012,02,03,10,37,11.10
2012,02,03,10,38,11.20
2012,02,03,10,39,11.20
2012,02,03,10,40,11.20
2012,02,03,10,41,11.20
2012,02,03,10,42,11.20
2012,02,03,10,43,11.20
2012,02,03,10,44,11.20
2012,02,03,10,45,11.20
2012,02,03,10,46,11.30
2012,02,03,10,47,11.30
2012,02,03,10,48,11.40
2012,02,03,10,49,11.40
2012,02,03,10,50,11.40
2012,02,03,10,51,11.50
2012,02,03,10,52,11.60
2012,02,03,10,53,11.60
2012,02,03,10,54,11.60
2012,02,03,10,55,11.60
2012,02,03,10,56,11.60
2012,02,03,10,57,11.60
2012,02,03,10,58,11.60
2012,02,03,10,59,11.70
2012,02,03,11,00,11.80
2012,02,03,11,01,11.80
2012,02,03,11,02,11.80
2012,02,03,11,03,11.80
2012,02,03,11,04,11.80
2012,02,03,11,05,11.80
2012,02,03,11,06,11.80
2012,02,03,11,07,11.80
2012,02,03,11,08,11.70
2012,02,03,11,09,11.70
2012,02,03,11,10,11.70
2012,02,03,11,11,11.80
2012,02,03,11,12,11.80
2012,02,03,11,13,11.80
2012,02,03,11,14,11.80
2012,02,03,11,15,11.90
2012,02,03,11,16,12.00
2012,02,03,11,17,12.00
2012,02,03,11,18,12.00
2012,02,03,11,19,12.00
2012,02,03,11,20,12.00
2012,02,03,11,21,12.10
2012,02,03,11,22,12.10
2012,02,03,11,23,12.20
2012,02,03,11,24,12.20
2012,02,03,11,25,12.30
2012,02,03,11,26,12.30
2012,02,03,11,27,12.40
2012,02,03,11,28,12.40
2012,02,03,11,29,12.40
2012,02,03,11,30,12.40
2012,02,03,11,31,12.40
2012,02,03,11,32,12.40
2012,02,03,11,33,12.40
2012,02,03,11,34,12.40
2012,02,03,11,35,12.40
2012,02,03,11,36,12.50
2012,02,03,11,37,12.50
2012,02,03,11,38,12.40
2012,02,03,11,39,12.40
2012,02,03,11,40,12.40
2012,02,03,11,41,12.50
2012,02,03,11,42,12.50
2012,02,03,11,43,12.50
2012,02,03,11,44,12.40
2012,02,03,11,45,12.30
2012,02,03,11,46,12.30
2012,02,03,11,47,12.30
2012,02,03,11,48,12.20
2012,02,03,11,49,12.20
2012,02,03,11,50,12.20
2012,02,03,11,51,12.30
2012,02,03,11,52,12.30
2012,02,03,11,53,12.30
2012,02,03,11,54,12.30
2012,02,03,11,55,12.20
2012,02,03,11,56,12.20
2012,02,03,11,57,12.20
2012,02,03,11,58,12.20
2012,02,03,11,59,12.20
2012,02,03,12,00,12.10
2012,02,03,12,01,12.10
2012,02,03,12,02,12.10
2012,02,03,12,03,12.20
2012,02,03,12,04,12.20
2012,02,03,12,05,12.20
2012,02,03,12,06,12.20
2012,02,03,12,07,12.20
2012,02,03,12,08,12.20
2012,02,03,12,09,12.10
2012,02,03,12,10,12.10
2012,02,03,12,11,12.20
2012,02,03,12,12,12.20
2012,02,03,12,13,12.10
2012,02,03,12,14,12.10
2012,02,03,12,15,12.20
2012,02,03,12,16,12.20
2012,02,03,12,17,12.30
2012,02,03,12,18,12.40
2012,02,03,12,19,12.50
2012,02,03,12,20,12.60
2012,02,03,12,21,12.60
2012,02,03,12,22,12.70
2012,02,03,12,23,12.70
2012,02,03,12,24,12.60
2012,02,03,12,25,12.60
2012,02,03,12,26,12.40
2012,02,03,12,27,12.30
2012,02,03,12,28,12.30
2012,02,03,12,29,12.20
2012,02,03,12,30,12.10
2012,02,03,12,31,12.10
2012,02,03,12,32,12.10
2012,02,03,12,33,12.10
2012,02,03,12,34,12.10
2012,02,03,12,35,12.10
2012,02,03,12,36,12.00
2012,02,03,12,37,12.10
2012,02,03,12,38,12.10
2012,02,03,12,39,12.10
2012,02,03,12,40,12.10
2012,02,03,12,41,12.10
2012,02,03,12,42,12.10
2012,02,03,12,43,12.00
2012,02,03,12,44,12.00
2012,02,03,12,45,11.90
2012,02,03,12,46,11.90
2012,02,03,12,47,11.90
2012,02,03,12,48,12.00
2012,02,03,12,49,12.00
2012,02,03,12,50,12.00
2012,02,03,12,51,12.00
2012,02,03,12,52,11.90
2012,02,03,12,53,11.90
2012,02,03,12,54,11.90
2012,02,03,12,55,11.90
2012,02,03,12,56,11.90
2012,02,03,12,57,11.90
2012,02,03,12,58,11.80
2012,02,03,12,59,11.80
2012,02,03,13,00,11.80
2012,02,03,13,01,11.80
2012,02,03,13,02,11.80
2012,02,03,13,03,11.80
2012,02,03,13,04,11.80
2012,02,03,13,05,11.80
2012,02,03,13,06,11.80
2012,02,03,13,07,11.80
2012,02,03,13,08,11.80
2012,02,03,13,09,11.70
2012,02,03,13,10,11.60
2012,02,03,13,11,11.60
2012,02,03,13,12,11.60
2012,02,03,13,13,11.60
2012,02,03,13,14,11.60
2012,02,03,13,15,11.60
2012,02,03,13,16,11.60
2012,02,03,13,17,11.60
2012,02,03,13,18,11.60
2012,02,03,13,19,11.60
2012,02,03,13,20,11.60
2012,02,03,13,21,11.60
2012,02,03,13,22,11.60
2012,02,03,13,23,11.60
2012,02,03,13,24,11.60
2012,02,03,13,25,11.60
2012,02,03,13,26,11.60
2012,02,03,13,27,11.70
2012,02,03,13,28,11.80
2012,02,03,13,29,11.80
2012,02,03,13,30,11.80
2012,02,03,13,31,11.80
2012,02,03,13,32,11.90
2012,02,03,13,33,11.90
2012,02,03,13,34,12.00
2012,02,03,13,35,12.00
2012,02,03,13,36,12.10
2012,02,03,13,37,12.10
2012,02,03,13,38,12.10
2012,02,03,13,39,12.10
2012,02,03,13,40,12.10
2012,02,03,13,41,12.10
2012,02,03,13,42,12.10
2012,02,03,13,43,12.10
2012,02,03,13,44,12.10
2012,02,03,13,45,12.10
2012,02,03,13,46,12.00
2012,02,03,13,47,11.90
2012,02,03,13,48,11.90
2012,02,03,13,49,12.00
2012,02,03,13,50,12.00
2012,02,03,13,51,12.00
2012,02,03,13,52,12.00
2012,02,03,13,53,12.00
2012,02,03,13,54,12.00
2012,02,03,13,55,12.10
2012,02,03,13,56,12.10
2012,02,03,13,57,12.10
2012,02,03,13,58,12.10
2012,02,03,13,59,12.10
2012,02,03,14,00,12.20
2012,02,03,14,01,12.20
2012,02,03,14,02,12.20
2012,02,03,14,03,12.10
2012,02,03,14,04,12.10
2012,02,03,14,05,12.10
2012,02,03,14,06,12.20
2012,02,03,14,07,12.30
2012,02,03,14,08,12.30
2012,02,03,14,09,12.30
2012,02,03,14,10,12.30
2012,02,03,14,11,12.30
2012,02,03,14,12,12.30
2012,02,03,14,13,12.30
2012,02,03,14,14,12.30
2012,02,03,14,15,12.30
2012,02,03,14,16,12.30
2012,02,03,14,17,12.30
2012,02,03,14,18,12.20
2012,02,03,14,19,12.30
2012,02,03,14,20,12.30
2012,02,03,14,21,12.30
2012,02,03,14,22,12.30
2012,02,03,14,23,12.30
2012,02,03,14,24,12.40
2012,02,03,14,25,12.50
2012,02,03,14,26,12.50
2012,02,03,14,27,12.60
2012,02,03,14,28,12.60
2012,02,03,14,29,12.70
2012,02,03,14,30,12.80
2012,02,03,14,31,12.80
2012,02,03,14,32,12.80
2012,02,03,14,33,12.80
2012,02,03,14,34,12.80
2012,02,03,14,35,12.80
2012,02,03,14,36,12.80
2012,02,03,14,37,12.80
2012,02,03,14,38,12.80
2012,02,03,14,39,12.80
2012,02,03,14,40,12.80
2012,02,03,14,41,12.80
2012,02,03,14,42,12.80
2012,02,03,14,43,12.80
2012,02,03,14,44,12.80
2012,02,03,14,45,12.80
2012,02,03,14,46,12.80
2012,02,03,14,47,12.80
2012,02,03,14,48,12.80
2012,02,03,14,49,12.80
2012,02,03,14,50,12.80
2012,02,03,14,51,12.80
2012,02,03,14,52,12.90
2012,02,03,14,53,12.90
2012,02,03,14,54,12.90
2012,02,03,14,55,12.90
2012,02,03,14,56,12.80
2012,02,03,14,57,12.80
2012,02,03,14,58,12.80
2012,02,03,14,59,12.80
2012,02,03,15,00,12.80
2012,02,03,15,01,12.80
2012,02,03,15,02,12.80
2012,02,03,15,03,12.80
2012,02,03,15,04,12.80
2012,02,03,15,05,12.80
2012,02,03,15,06,12.90
2012,02,03,15,07,13.00
2012,02,03,15,08,13.00
2012,02,03,15,09,13.10
2012,02,03,15,10,13.10
2012,02,03,15,11,13.10
2012,02,03,15,12,13.10
2012,02,03,15,13,13.20
2012,02,03,15,14,13.20
2012,02,03,15,15,13.20
2012,02,03,15,16,13.10
2012,02,03,15,17,13.10
2012,02,03,15,18,13.10
2012,02,03,15,19,13.00
2012,02,03,15,20,13.00
2012,02,03,15,21,13.10
2012,02,03,15,22,13.10
2012,02,03,15,23,13.10
2012,02,03,15,24,13.20
2012,02,03,15,25,13.20
2012,02,03,15,26,13.20
2012,02,03,15,27,13.30
2012,02,03,15,28,13.30
2012,02,03,15,29,13.30
2012,02,03,15,30,13.30
2012,02,03,15,31,13.30
2012,02,03,15,32,13.30
2012,02,03,15,33,13.30
2012,02,03,15,34,13.30
2012,02,03,15,35,13.30
2012,02,03,15,36,13.30
2012,02,03,15,37,13.30
2012,02,03,15,38,13.30
2012,02,03,15,39,13.30
2012,02,03,15,40,13.30
2012,02,03,15,41,13.30
2012,02,03,15,42,13.30
2012,02,03,15,43,13.30
2012,02,03,15,44,13.30
2012,02,03,15,45,13.30
2012,02,03,15,46,13.20
2012,02,03,15,47,13.20
2012,02,03,15,48,13.20
2012,02,03,15,49,13.10
2012,02,03,15,50,13.10
2012,02,03,15,51,13.10
2012,02,03,15,52,13.10
2012,02,03,15,53,13.10
2012,02,03,15,54,13.10
2012,02,03,15,55,13.10
2012,02,03,15,56,13.10
2012,02,03,15,57,13.00
2012,02,03,15,58,12.90
2012,02,03,15,59,12.80
2012,02,03,16,00,12.80
2012,02,03,16,01,12.70
2012,02,03,16,02,12.70
2012,02,03,16,03,12.70
2012,02,03,16,04,12.60
2012,02,03,16,05,12.60
2012,02,03,16,06,12.60
2012,02,03,16,07,12.50
2012,02,03,16,08,12.50
2012,02,03,16,09,12.50
2012,02,03,16,10,12.40
2012,02,03,16,11,12.40
2012,02,03,16,12,12.40
2012,02,03,16,13,12.30
2012,02,03,16,14,12.30
2012,02,03,16,15,12.20
2012,02,03,16,16,12.10
2012,02,03,16,17,12.10
2012,02,03,16,18,12.10
2012,02,03,16,19,12.10
2012,02,03,16,20,12.10
2012,02,03,16,21,12.10
2012,02,03,16,22,12.00
2012,02,03,16,23,12.10
2012,02,03,16,24,12.00
2012,02,03,16,25,12.00
2012,02,03,16,26,12.00
2012,02,03,16,27,12.10
2012,02,03,16,28,12.10
2012,02,03,16,29,12.10
2012,02,03,16,30,12.00
2012,02,03,16,31,12.00
2012,02,03,16,32,11.90
2012,02,03,16,33,11.80
2012,02,03,16,34,11.60
2012,02,03,16,35,11.60
2012,02,03,16,36,11.60
2012,02,03,16,37,11.60
2012,02,03,16,38,11.50
2012,02,03,16,39,11.40
2012,02,03,16,40,11.30
2012,02,03,16,41,11.20
2012,02,03,16,42,11.20
2012,02,03,16,43,11.10
2012,02,03,16,44,11.10
2012,02,03,16,45,11.10
2012,02,03,16,46,11.10
2012,02,03,16,47,11.10
2012,02,03,16,48,11.00
2012,02,03,16,49,10.90
2012,02,03,16,50,10.90
2012,02,03,16,51,10.90
2012,02,03,16,52,10.90
2012,02,03,16,53,11.00
2012,02,03,16,54,11.10
2012,02,03,16,55,11.10
2012,02,03,16,56,11.10
2012,02,03,16,57,11.00
2012,02,03,16,58,10.90
2012,02,03,16,59,10.90
2012,02,03,17,00,10.80
2012,02,03,17,01,10.80
2012,02,03,17,02,10.80
2012,02,03,17,03,10.80
2012,02,03,17,04,10.70
2012,02,03,17,05,10.70
2012,02,03,17,06,10.60
2012,02,03,17,07,10.40
2012,02,03,17,08,10.30
2012,02,03,17,09,10.10
2012,02,03,17,10,10.00
2012,02,03,17,11,9.90
2012,02,03,17,12,9.80
2012,02,03,17,13,9.70
2012,02,03,17,14,9.60
2012,02,03,17,15,9.50
2012,02,03,17,16,9.30
2012,02,03,17,17,9.20
2012,02,03,17,18,9.10
2012,02,03,17,19,8.90
2012,02,03,17,20,8.90
2012,02,03,17,21,8.80
2012,02,03,17,22,8.70
2012,02,03,17,23,8.70
2012,02,03,17,24,8.60
2012,02,03,17,25,8.50
2012,02,03,17,26,8.50
2012,02,03,17,27,8.40
2012,02,03,17,28,8.40
2012,02,03,17,29,8.30
2012,02,03,17,30,8.20
2012,02,03,17,31,8.20
2012,02,03,17,32,8.20
2012,02,03,17,33,8.10
2012,02,03,17,34,8.00
2012,02,03,17,35,8.00
2012,02,03,17,36,7.90
2012,02,03,17,37,7.90
2012,02,03,17,38,7.80
2012,02,03,17,39,7.80
2012,02,03,17,40,7.80
2012,02,03,17,41,7.70
2012,02,03,17,42,7.70
2012,02,03,17,43,7.70
2012,02,03,17,44,7.60
2012,02,03,17,45,7.60
2012,02,03,17,46,7.60
2012,02,03,17,47,7.60